Location: East Rochester
(43.1122°N, 77.4867°W)
Time: 20:10:46
(UTC+00:00)

Tiangong - Visible Passes

Search period start: 14 July 2024 00:00
Search period end: 24 July 2024 00:00
Orbit: 373 x 378 km, 41.5° (Epoch: 14 July)

Date Brightness Start Highest point End Pass type
(mag) Time Alt. Az. Time Alt. Az. Time Alt. Az.
14 Jul -1.0 07:58:44 26° SSE 07:58:59 26° SSE 08:01:39 10° E visible
15 Jul -1.9 08:30:57 20° WSW 08:32:51 50° SSE 08:35:52 10° E visible
16 Jul -0.9 07:31:06 30° SE 07:31:06 30° SE 07:33:11 10° E visible
16 Jul -2.1 09:03:40 10° W 09:06:45 65° S 09:09:49 10° E visible
17 Jul -2.2 08:03:12 39° SW 08:04:04 59° S 08:07:08 10° E visible
18 Jul 0.1 07:03:18 19° E 07:03:18 19° E 07:04:19 10° E visible
18 Jul -2.2 08:35:17 14° W 08:37:48 63° S 08:40:52 10° ESE visible
19 Jul -1.9 07:35:24 55° SE 07:35:24 55° SE 07:38:02 10° E visible
19 Jul -1.7 09:08:27 10° W 09:11:25 42° SSW 09:14:22 10° ESE visible
20 Jul -2.2 08:07:36 37° WSW 08:08:31 56° S 08:11:34 10° ESE visible
21 Jul 0.3 07:07:56 15° ESE 07:07:56 15° ESE 07:08:36 10° E visible
21 Jul -1.4 08:39:58 16° WSW 08:41:55 32° SSW 08:44:43 10° SE visible
22 Jul -0.3 07:40:36 21° SE 07:40:36 21° SE 07:41:52 10° ESE visible
22 Jul -0.3 09:13:12 10° WSW 09:15:02 15° SSW 09:16:53 10° S visible
23 Jul -0.1 08:13:41 16° SSE 08:13:41 16° SSE 08:14:35 10° SSE visible
